Find Starlink 1730

NORAD ID: 46563 Int'l Des: 2020-070 Owner: SPXS Country: US Constellation: starlink operational
LEOCIRCULAR

Live Position

Loading 3D Globe...

About Starlink 1730

Description loading...

Upcoming Passes

Passes for default location (London). Set your location on the main map for personalized predictions.

Altitude History

Loading altitude history...

Two-Line Element Set

1 46563U 20070AH 26127.17856032 .00110367 00000-0 16581-2 0 9994
2 46563 53.0255 202.1019 0005790 350.9051 9.1853 15.54036770309337
Epoch: May 7, 2026 • Age: 8 hours

Current Status

Altitude 413.9 km
Velocity 7.66 km/s
Sub-Earth Point -37.52°S, 123.3°E
Launch Date Oct 6, 2020
Age 5.5 years
Type internet

Technical Details

Classification Payload
Mass 260.00 kg
Dry Mass 248.00 kg
Total Mass 260.00 kg
Length 0.20 m
Diameter 2.80 m
Span 9.00 m
Shape Box + pan
Manufacturer SPXS
Bus Type Starlink
Phase Status In Orbit
Owner/State SPXS/US

Most Searched